Вернуться в каталог

ONEWEB-0717

АктивенСвязьPO
NORAD 55178·PAYLOAD·🇬🇧 United Kingdom

Запущен Jan 10, 2023 с Cape Canaveral Space Force Station

Loading…

Ближайшие Пролёты (ближайшие 24 часа)

TLE

СвежийSource: CelesTrak SupGP

Эпоха: Sep 14, 2026, 23:02 UTC

1 55178C 23004AQ  26257.95986528 -.00000173  00000+0 -44579-3 0  2570
2 55178  87.9207 348.0357 0001789 120.2969 349.6337 13.17650724    17

Отслеживайте ONEWEB-0717 в реальном времени с AllMySat

Download on the App Store